Regional Weather Roundup
Issued by NWS

Home | Current Version | Previous Version | Text Only | Print | Product List | Glossary On
Versions: 1 2 3 4 5 6 7 8 9 10 11 12 13 14 15 16 17 18 19 20 21 22 23 24 25 26 27 28 29 30 31 32 33 34 35 36 37 38 39 40 41 42 43 44 45 46 47
000
ASUS45 KSLC 012210
RWRUT

UTAH REGIONAL WEATHER ROUNDUP
NATIONAL WEATHER SERVICE SALT LAKE CITY UT
400 PM MDT WED APR 01 2015

UTZ001>011-023>025-012300-

NORTHERN UTAH

CITY           SKY/WX    TMP DP  RH WIND       PRES   REMARKS
BRIGHAM CITY   SUNNY     52  13  21 W13G18    30.04F
HILL AFB       SUNNY     49  21  33 SW9       30.04F
LOGAN          SUNNY     51   9  18 VRB6      30.01F
OGDEN          SUNNY     50  19  29 W12       30.04F
PROVO AIRPORT  SUNNY     52  12  20 NW9       30.04
SALT LAKE CITY PTSUNNY   50  14  23 NW10G17   30.05R
VERNAL         SUNNY     58   2  10 W20G31    29.87F
WENDOVER       SUNNY     52  10  19 E10       30.05F
HEBER CITY     SUNNY     52   0  11 SW16G23   29.98F
WEST JORDAN    SUNNY     48  16  27 NW10G20   30.05F

$$

UTZ012>022-026-027-012300-

SOUTHERN/CENTRAL UTAH

CITY           SKY/WX    TMP DP  RH WIND       PRES   REMARKS
BLANDING       SUNNY     67  20  16 SW6G22    29.95S
BRYCE CANYON   SUNNY     55  18  23 W10G18    30.00F
CEDAR CITY     SUNNY     59  15  18 VRB7      29.98F
DELTA          SUNNY     53  -2  10 NW3       30.02F
HANKSVILLE     SUNNY     70  18  13 NW12G18   29.88F
MILFORD        SUNNY     57  15  19 NE13      29.99F
MOAB/CYNLANDS  SUNNY     66  12  12 W13G21    29.86F
PRICE          SUNNY     58   7  13 W15G23    29.93F
ST GEORGE      CLEAR     73  21  14 NW3       29.89F
KANAB          SUNNY     70   5   8 SW16G23   29.96R

$$

REGIONAL REPORTS     COLORADO/ARIZONA

CITY           SKY/WX    TMP DP  RH WIND       PRES   REMARKS
CRAIG, CO      MOSUNNY   57  22  25 VRB7G23   29.86F
GRAND JUNCTION MOSUNNY   67  17  14 W20G30    29.83S
RIFLE          MOSUNNY   67  17  14 W23G35    29.81F
MONTROSE       PTSUNNY   64  22  20 SW21G31   29.88F
CORTEZ         PTSUNNY   70  13  11 SW17G30   29.88F
PAGE, AZ       SUNNY     76   1   5 W16G26    29.85S
GRAND CANYON   SUNNY     66  15  14 W10G22    29.99F
KINGMAN        SUNNY     78  17  10 S9        29.91F
FLAGSTAFF      MOSUNNY   62  26  25 SW17G31   30.02F

$$

REGIONAL REPORTS    NEVADA/IDAHO/WYOMING

CITY           SKY/WX    TMP DP  RH WIND       PRES   REMARKS
LAS VEGAS, NV  MOSUNNY   79   7   6 VRB3      29.82F
ELY            SUNNY     52  -4  10 SW5       29.98F
ELKO           SUNNY     49   6  17 VRB3      30.03F
POCATELLO, ID  MOSUNNY   50  11  20 W26G37    30.03S
BURLEY         SUNNY     49  15  25 W21G30    30.05F
EVANSTON, WY   MOSUNNY   42   7  23 W17G23    30.01F
ROCK SPRINGS   SUNNY     45   3  17 W25G35    29.95S
KEMMERER       SUNNY     41   5  22 W20G25    29.99F

$$



USA.gov is the U.S. government's official web portal to all federal, state and local government web resources and services.